N55RJ KATL-KRYY

Flight info

Callsign N55RJ
Flight time 0h 14m
Altitude 3000
Route KATL KRYY
Aircraft SR20/L-V/N

Departure

Time 2026-05-04 00:55
Airport Hartsfield Jackson Atlanta International Airport (KATL)

Arrival

Time 2026-05-04 01:10
Airport Cobb County International Airport-McCollum Field (KRYY)
Time Latitude Longitude Altitude Speed Heading
2026-05-04 00:45 33.65136 -84.42315 1031 ft 0 kts 180°
2026-05-04 00:48 33.65133 -84.42314 1031 ft 3 kts 157°
2026-05-04 00:48 33.65129 -84.42305 1031 ft 0 kts 92°
2026-05-04 00:49 33.65128 -84.42288 1031 ft 8 kts 91°
2026-05-04 00:49 33.65096 -84.42213 1031 ft 15 kts 165°
2026-05-04 00:49 33.65064 -84.42082 1031 ft 21 kts 90°
2026-05-04 00:49 33.65064 -84.41898 1031 ft 18 kts 88°
2026-05-04 00:50 33.65062 -84.41724 1030 ft 23 kts 91°
2026-05-04 00:50 33.65089 -84.41521 1030 ft 26 kts 64°
2026-05-04 00:50 33.65121 -84.41307 1030 ft 21 kts 91°
2026-05-04 00:50 33.65120 -84.41113 1030 ft 25 kts 90°
2026-05-04 00:51 33.65111 -84.40996 1030 ft 13 kts 127°
2026-05-04 00:51 33.65053 -84.40967 1031 ft 0 kts 180°
2026-05-04 00:54 33.65050 -84.40967 1031 ft 2 kts 180°
2026-05-04 00:54 33.64958 -84.41023 1030 ft 31 kts 256°
2026-05-04 00:54 33.64955 -84.41542 1034 ft 92 kts 269°
2026-05-04 00:55 33.64965 -84.42343 1335 ft 100 kts 281°
2026-05-04 00:55 33.65479 -84.42890 1666 ft 110 kts 346°
2026-05-04 00:55 33.66232 -84.42942 2098 ft 110 kts 353°
2026-05-04 00:55 33.67026 -84.43041 2359 ft 118 kts 348°
2026-05-04 00:56 33.67830 -84.43196 2701 ft 119 kts 345°
2026-05-04 00:56 33.68657 -84.43440 2968 ft 118 kts 342°
2026-05-04 00:56 33.69412 -84.43700 2941 ft 112 kts 340°
2026-05-04 00:56 33.70147 -84.43969 2878 ft 111 kts 339°
2026-05-04 00:57 33.70884 -84.44249 2817 ft 110 kts 340°
2026-05-04 00:57 33.71607 -84.44483 2803 ft 106 kts 346°
2026-05-04 00:57 33.72336 -84.44579 2759 ft 105 kts 352°
2026-05-04 00:57 33.73056 -84.44632 2716 ft 105 kts 353°
2026-05-04 00:58 33.73798 -84.44702 2668 ft 106 kts 353°
2026-05-04 00:58 33.74546 -84.44765 2605 ft 107 kts 352°
2026-05-04 00:58 33.75299 -84.44838 2534 ft 109 kts 353°
2026-05-04 00:58 33.76048 -84.44879 2530 ft 105 kts 354°
2026-05-04 00:59 33.76754 -84.44939 2884 ft 99 kts 353°
2026-05-04 00:59 33.77495 -84.44983 3142 ft 115 kts 353°
2026-05-04 00:59 33.78292 -84.45052 3341 ft 113 kts 352°
2026-05-04 00:59 33.79055 -84.45139 3396 ft 110 kts 351°
2026-05-04 01:00 33.79819 -84.45221 3447 ft 110 kts 352°
2026-05-04 01:00 33.80579 -84.45301 3491 ft 110 kts 351°
2026-05-04 01:00 33.81336 -84.45401 3496 ft 112 kts 347°
2026-05-04 01:00 33.82110 -84.45604 3497 ft 114 kts 341°
2026-05-04 01:01 33.82883 -84.45844 3502 ft 116 kts 346°
2026-05-04 01:01 33.83677 -84.46037 3523 ft 116 kts 345°
2026-05-04 01:01 33.84468 -84.46229 3545 ft 116 kts 345°
2026-05-04 01:01 33.85265 -84.46427 3482 ft 120 kts 345°
2026-05-04 01:02 33.86117 -84.46641 3383 ft 127 kts 346°
2026-05-04 01:02 33.86989 -84.46753 3382 ft 126 kts
2026-05-04 01:02 33.87839 -84.46539 3381 ft 126 kts 11°
2026-05-04 01:02 33.88707 -84.46287 3379 ft 126 kts 11°
2026-05-04 01:03 33.89545 -84.46047 3378 ft 125 kts 11°
2026-05-04 01:03 33.90393 -84.45806 3372 ft 124 kts 10°
2026-05-04 01:03 33.91235 -84.45584 3366 ft 122 kts
2026-05-04 01:03 33.92080 -84.45587 3367 ft 121 kts 356°
2026-05-04 01:04 33.92920 -84.45586 3363 ft 120 kts 355°
2026-05-04 01:04 33.93754 -84.45588 3365 ft 119 kts 356°
2026-05-04 01:04 33.94581 -84.45591 3362 ft 119 kts 356°
2026-05-04 01:04 33.95340 -84.45872 3334 ft 118 kts 321°
2026-05-04 01:05 33.96025 -84.46468 3112 ft 122 kts 323°
2026-05-04 01:05 33.96715 -84.47049 2880 ft 122 kts 323°
2026-05-04 01:05 33.97382 -84.47616 2785 ft 110 kts 322°
2026-05-04 01:05 33.97978 -84.48119 2665 ft 108 kts 323°
2026-05-04 01:06 33.98622 -84.48681 2404 ft 119 kts 322°
2026-05-04 01:06 33.99284 -84.49278 2293 ft 113 kts 320°
2026-05-04 01:06 33.99876 -84.49840 2270 ft 104 kts 319°
2026-05-04 01:06 34.00417 -84.50390 2268 ft 102 kts 316°
2026-05-04 01:07 34.00926 -84.51009 2246 ft 98 kts 299°
2026-05-04 01:07 34.01244 -84.51736 2144 ft 95 kts 293°
2026-05-04 01:07 34.01412 -84.52474 2060 ft 88 kts 278°
2026-05-04 01:07 34.01443 -84.53219 1921 ft 89 kts 268°
2026-05-04 01:08 34.01412 -84.53966 1776 ft 89 kts 268°
2026-05-04 01:08 34.01408 -84.54710 1724 ft 88 kts 272°
2026-05-04 01:08 34.01401 -84.55451 1636 ft 89 kts 264°
2026-05-04 01:08 34.01384 -84.56186 1530 ft 87 kts 271°
2026-05-04 01:09 34.01373 -84.56889 1402 ft 78 kts 268°
2026-05-04 01:09 34.01356 -84.57550 1276 ft 79 kts 266°
2026-05-04 01:09 34.01344 -84.58187 1143 ft 73 kts 266°
2026-05-04 01:09 34.01334 -84.58807 1020 ft 70 kts 268°
2026-05-04 01:10 34.01326 -84.59292 1011 ft 49 kts 268°
2026-05-04 01:10 34.01320 -84.59618 1014 ft 19 kts 268°
2026-05-04 01:10 34.01385 -84.59687 1016 ft 15 kts 291°
2026-05-04 01:10 34.01384 -84.59807 1020 ft 14 kts 269°
2026-05-04 01:11 34.01426 -84.59762 1018 ft 12 kts 80°
2026-05-04 01:11 34.01434 -84.59754 1018 ft 0 kts